カタログに戻る

THORAD AGENA D DEB

運用中SSO
NORAD 4672·DEBRIS·🇺🇸 United States

打ち上げ Apr 8, 1970 から Vandenberg Space Force Base

Loading…

次のパス (今後24時間)

TLE

最新Source: Space-Track

元期: Sep 14, 2026, 09:11 UTC

1 04672U 70025AV  26257.38298792  .00000175  00000-0  31047-3 0  9994
2 04672  99.3806  92.4399 0037411 188.8343 292.5372 13.55491828781948

AllMySatでTHORAD AGENA D DEBをリアルタイム追跡

Download on the App Store